HULIANWANG DIGUI-132

导读

HULIANWANG DIGUI-132是中国于2025年12月25日发射的低轨卫星,隶属互联网星座体系,作为低轨卫星互联网建设的重要组成部分,承担着构建全球高速网络覆盖的任务。该卫星依托低轨轨道优势,可实现低延迟、大容量的通信传输,为全球提供宽带互联网接入服务,进一步完善中国低轨通信卫星星座组网,推动天地一体化信息网络建设。

基本信息
目录编号:
67240
目录名称:
HULIANWANG DIGUI-132
国际标识:
2025-311E
轨道中心:
EARTH
卫星名称:
HULIANWANG DIGUI-132
卫星全名:
HULIANWANG DIGUI-132
卫星状态:
在轨 (已飞行178 天)
发射日期:
2025-12-25 UTC
国别 :
中国 (CN)
星等 :
--
轨道信息
数据来源 国际轨道数据 AOE轨道数据
星历时间 2026-06-20T04:38:13+0800
1天前
查看轨道信息
2026-06-20T11:00:00+0800
1天前
查看轨道信息
半长轴 7527.456km 7527.456km
偏心率 0.0001033 0.0000063
轨道倾角 50.006° 50.005°
近地点辐角 336.160° 62.645°
升交点赤经 106.290° 105.338°
平近点角 23.922° 127.032°
近地点 1148.541km 1149.271km
远地点 1150.097km 1149.367km
周期 108.326分钟 108.326分钟
每日圈数 13.293229 13.293228
详细信息
使用方式:
暂无
2D轨道图
3D轨道图
轨道高度分析图
轨道倾角分析图
轨道综合分析图
查看轨道综合分析图